Location: Unspecified
(42.2730°N, 83.7130°W)
Time: 14:23:39
(UTC+00:00)

Okean 1-7 Rocket - Pass Details

Date: 14 December 2025
Orbit: 610 x 643 km, 82.5° (Epoch: 17 January)

Event Time Altitude Azimuth Distance (km) Brightness Sun altitude
Rises 22:37:16 0° 353° (N) 2,892 6.8 -6.4°
Reaches altitude 10° 22:39:31 10° 354° (N) 1,979 6.0 -6.8°
Maximum altitude 22:43:54 80° 81° (E) 625 3.5 -7.5°
Drops below altitude 10° 22:48:14 10° 170° (S) 1,957 6.3 -8.2°
Sets 22:50:26 0° 171° (S) 2,857 7.2 -8.6°
